| time (UTC) | temp C | wind direction | speed KPH | gust KPH | rain 1hr cm | rain 24hr cm | rain mn cm | humidity % | barometer mb |
| 20260503050320 | 8 | 341 | 0.0 | 0.0 | 0.00 | 0.00 | 0.00 | 84 | 1013.2 |
| 20260503045819 | 8 | 341 | 0.0 | 0.0 | 0.00 | 0.00 | 0.00 | 83 | 1013.2 |
| 20260503045319 | 8 | 341 | 0.0 | 0.0 | 0.00 | 0.00 | 0.00 | 81 | 1013.2 |
| 20260503044820 | 9 | 341 | 0.0 | 0.0 | 0.00 | 0.00 | 0.00 | 80 | 1013.1 |
| 20260503044312 | 9 | 341 | 0.0 | 0.0 | 0.00 | 0.00 | 0.00 | 79 | 1013.2 |
| 20260503043836 | 9 | 341 | 0.0 | 1.6 | 0.00 | 0.00 | 0.00 | 79 | 1013.2 |
| 20260503043316 | 9 | 341 | 0.0 | 1.6 | 0.00 | 0.00 | 0.00 | 78 | 1013.2 |
| 20260503042815 | 8 | 341 | 0.0 | 3.2 | 0.00 | 0.00 | 0.00 | 79 | 1013.3 |
| 20260503042315 | 8 | 341 | 0.0 | 4.8 | 0.00 | 0.00 | 0.00 | 80 | 1013.1 |
| 20260503041840 | 8 | 341 | 1.6 | 4.8 | 0.00 | 0.00 | 0.00 | 80 | 1013.2 |
| 20260503041322 | 8 | 341 | 0.0 | 0.0 | 0.00 | 0.00 | 0.00 | 79 | 1013.2 |
| 20260503040824 | 8 | 341 | 0.0 | 1.6 | 0.00 | 0.00 | 0.00 | 77 | 1013.1 |
| 20260503040320 | 8 | 341 | 0.0 | 3.2 | 0.00 | 0.00 | 0.00 | 76 | 1013.0 |
| 20260503035820 | 8 | 341 | 1.6 | 3.2 | 0.00 | 0.00 | 0.00 | 74 | 1013.1 |
| 20260503035346 | 9 | 341 | 0.0 | 1.6 | 0.00 | 0.00 | 0.00 | 72 | 1013.0 |
| 20260503034820 | 9 | 341 | 0.0 | 1.6 | 0.00 | 0.00 | 0.00 | 72 | 1013.0 |
| 20260503034346 | 9 | 341 | 0.0 | 1.6 | 0.00 | 0.00 | 0.00 | 74 | 1013.0 |
| 20260503033826 | 9 | 341 | 0.0 | 1.6 | 0.00 | 0.00 | 0.00 | 75 | 1013.0 |
| 20260503033325 | 9 | 341 | 0.0 | 1.6 | 0.00 | 0.00 | 0.00 | 77 | 1012.9 |
| 20260503032824 | 9 | 341 | 0.0 | 1.6 | 0.00 | 0.00 | 0.00 | 77 | 1012.8 |
| 20260503032326 | 10 | 341 | 0.0 | 1.6 | 0.00 | 0.00 | 0.00 | 75 | 1012.7 |
| 20260503031852 | 10 | 341 | 0.0 | 1.6 | 0.00 | 0.00 | 0.00 | 74 | 1012.8 |
| 20260503031329 | 10 | 341 | 0.0 | 1.6 | 0.00 | 0.00 | 0.00 | 75 | 1012.8 |
| 20260503030827 | 10 | 341 | 0.0 | 1.6 | 0.00 | 0.00 | 0.00 | 76 | 1012.9 |
| 20260503030326 | 9 | 341 | 0.0 | 3.2 | 0.00 | 0.00 | 0.00 | 76 | 1012.9 |
| 20260503025825 | 9 | 341 | 0.0 | 3.2 | 0.00 | 0.00 | 0.00 | 78 | 1013.0 |
| 20260503025313 | 8 | 341 | 0.0 | 1.6 | 0.00 | 0.00 | 0.00 | 80 | 1013.0 |
| 20260503024812 | 8 | 341 | 0.0 | 1.6 | 0.00 | 0.00 | 0.00 | 81 | 1013.1 |
| 20260503024339 | 8 | 341 | 0.0 | 1.6 | 0.00 | 0.00 | 0.00 | 81 | 1012.9 |
| 20260503023844 | 8 | 341 | 0.0 | 1.6 | 0.00 | 0.00 | 0.00 | 83 | 1013.1 |
| 20260503023323 | 8 | 341 | 0.0 | 0.0 | 0.00 | 0.00 | 0.00 | 84 | 1013.0 |
| 20260503022823 | 8 | 341 | 0.0 | 0.0 | 0.00 | 0.00 | 0.00 | 85 | 1013.0 |
| 20260503022349 | 8 | 341 | 0.0 | 0.0 | 0.00 | 0.00 | 0.00 | 84 | 1013.0 |
| 20260503021828 | 8 | 341 | 0.0 | 0.0 | 0.00 | 0.00 | 0.00 | 84 | 1012.8 |
| 20260503021327 | 8 | 341 | 0.0 | 0.0 | 0.00 | 0.00 | 0.00 | 84 | 1012.8 |
| 20260503020828 | 8 | 341 | 0.0 | 0.0 | 0.00 | 0.00 | 0.00 | 84 | 1013.0 |
| 20260503020330 | 8 | 341 | 0.0 | 0.0 | 0.00 | 0.00 | 0.00 | 84 | 1012.9 |
| 20260503015828 | 8 | 341 | 0.0 | 0.0 | 0.00 | 0.00 | 0.00 | 84 | 1012.8 |
| 20260503015320 | 8 | 341 | 0.0 | 0.0 | 0.00 | 0.00 | 0.00 | 83 | 1012.8 |
| 20260503014820 | 8 | 341 | 0.0 | 0.0 | 0.00 | 0.00 | 0.00 | 83 | 1012.8 |
| 20260503014320 | 8 | 341 | 0.0 | 0.0 | 0.00 | 0.00 | 0.00 | 82 | 1012.7 |
| 20260503013819 | 9 | 341 | 0.0 | 0.0 | 0.00 | 0.00 | 0.00 | 81 | 1012.8 |
| 20260503013318 | 9 | 341 | 0.0 | 0.0 | 0.00 | 0.00 | 0.00 | 80 | 1012.7 |
| 20260503012816 | 10 | 341 | 0.0 | 0.0 | 0.00 | 0.00 | 0.00 | 79 | 1012.7 |
| 20260503012317 | 10 | 341 | 0.0 | 0.0 | 0.00 | 0.00 | 0.00 | 77 | 1012.8 |
| 20260503011816 | 10 | 341 | 0.0 | 0.0 | 0.00 | 0.00 | 0.00 | 77 | 1012.7 |
| 20260503011316 | 10 | 341 | 0.0 | 0.0 | 0.00 | 0.00 | 0.00 | 79 | 1012.8 |
| 20260503010817 | 10 | 341 | 0.0 | 0.0 | 0.00 | 0.00 | 0.00 | 80 | 1012.8 |
| 20260503010320 | 10 | 341 | 0.0 | 0.0 | 0.00 | 0.00 | 0.00 | 81 | 1012.8 |
| 20260503005820 | 10 | 341 | 0.0 | 0.0 | 0.00 | 0.00 | 0.00 | 83 | 1012.8 |
| 20260503005319 | 10 | 341 | 0.0 | 0.0 | 0.00 | 0.00 | 0.00 | 82 | 1012.7 |
| 20260503004818 | 10 | 341 | 0.0 | 0.0 | 0.00 | 0.00 | 0.00 | 81 | 1012.5 |
| 20260503004317 | 10 | 341 | 0.0 | 0.0 | 0.00 | 0.00 | 0.00 | 81 | 1012.4 |
| 20260503003854 | 10 | 341 | 0.0 | 0.0 | 0.00 | 0.00 | 0.00 | 80 | 1012.3 |
| 20260503003334 | 10 | 341 | 0.0 | 0.0 | 0.00 | 0.00 | 0.00 | 80 | 1012.2 |
| 20260503002812 | 10 | 341 | 0.0 | 0.0 | 0.00 | 0.00 | 0.00 | 78 | 1012.1 |
| 20260503002312 | 10 | 341 | 0.0 | 0.0 | 0.00 | 0.00 | 0.00 | 79 | 1012.1 |
| 20260503001812 | 10 | 341 | 0.0 | 0.0 | 0.00 | 0.00 | 0.00 | 77 | 1012.1 |
| 20260503001335 | 10 | 341 | 0.0 | 0.0 | 0.00 | 0.00 | 0.00 | 76 | 1012.0 |
| 20260503000834 | 11 | 341 | 0.0 | 0.0 | 0.00 | 0.00 | 0.00 | 76 | 1011.9 |
| 20260503000332 | 11 | 341 | 0.0 | 0.0 | 0.00 | 0.00 | 0.00 | 76 | 1011.8 |
| 20260502235830 | 11 | 341 | 0.0 | 0.0 | 0.00 | 0.00 | 0.00 | 76 | 1011.8 |
| 20260502235312 | 11 | 341 | 0.0 | 0.0 | 0.00 | 0.00 | 0.00 | 74 | 1011.7 |
| 20260502234812 | 11 | 341 | 0.0 | 0.0 | 0.00 | 0.00 | 0.00 | 72 | 1011.6 |
| 20260502234337 | 12 | 341 | 0.0 | 0.0 | 0.00 | 0.00 | 0.00 | 71 | 1011.5 |
| 20260502233828 | 12 | 341 | 0.0 | 0.0 | 0.00 | 0.00 | 0.00 | 70 | 1011.4 |
| 20260502233327 | 12 | 341 | 0.0 | 0.0 | 0.00 | 0.00 | 0.00 | 70 | 1011.4 |
| 20260502232828 | 12 | 341 | 0.0 | 0.0 | 0.00 | 0.00 | 0.00 | 69 | 1011.3 |
| 20260502232327 | 13 | 341 | 0.0 | 0.0 | 0.00 | 0.00 | 0.00 | 67 | 1011.2 |
| 20260502231827 | 13 | 341 | 0.0 | 0.0 | 0.00 | 0.00 | 0.00 | 65 | 1011.1 |
| 20260502231349 | 13 | 341 | 0.0 | 0.0 | 0.00 | 0.00 | 0.00 | 64 | 1011.1 |
| 20260502230827 | 14 | 341 | 0.0 | 0.0 | 0.00 | 0.00 | 0.00 | 63 | 1011.1 |
| 20260502230328 | 14 | 341 | 0.0 | 0.0 | 0.00 | 0.00 | 0.00 | 63 | 1011.1 |
| 20260502225825 | 14 | 341 | 0.0 | 0.0 | 0.00 | 0.00 | 0.00 | 62 | 1011.0 |
| 20260502225323 | 15 | 341 | 0.0 | 0.0 | 0.00 | 0.00 | 0.00 | 62 | 1011.0 |
| 20260502224821 | 15 | 341 | 0.0 | 0.0 | 0.00 | 0.00 | 0.00 | 58 | 1011.0 |
| 20260502224320 | 15 | 341 | 0.0 | 1.6 | 0.00 | 0.00 | 0.00 | 59 | 1011.0 |
| 20260502223816 | 15 | 341 | 0.0 | 1.6 | 0.00 | 0.00 | 0.00 | 57 | 1011.0 |
| 20260502223315 | 15 | 341 | 0.0 | 1.6 | 0.00 | 0.00 | 0.00 | 56 | 1010.9 |
| 20260502222839 | 15 | 341 | 0.0 | 1.6 | 0.00 | 0.00 | 0.00 | 56 | 1010.9 |
| 20260502222351 | 15 | 341 | 0.0 | 1.6 | 0.00 | 0.00 | 0.00 | 56 | 1011.0 |
| 20260502221828 | 15 | 341 | 0.0 | 1.6 | 0.00 | 0.00 | 0.00 | 55 | 1010.9 |
| 20260502221327 | 16 | 341 | 0.0 | 1.6 | 0.00 | 0.00 | 0.00 | 53 | 1010.8 |
| 20260502220826 | 16 | 341 | 0.0 | 0.0 | 0.00 | 0.00 | 0.00 | 54 | 1011.0 |
| 20260502220352 | 16 | 341 | 0.0 | 1.6 | 0.00 | 0.00 | 0.00 | 53 | 1010.9 |
| 20260502215830 | 16 | 341 | 0.0 | 1.6 | 0.00 | 0.00 | 0.00 | 53 | 1010.9 |
| 20260502215329 | 16 | 341 | 0.0 | 1.6 | 0.00 | 0.00 | 0.00 | 53 | 1010.9 |
| 20260502214816 | 16 | 341 | 0.0 | 1.6 | 0.00 | 0.00 | 0.00 | 52 | 1011.0 |
| 20260502214334 | 16 | 341 | 0.0 | 3.2 | 0.00 | 0.00 | 0.00 | 51 | 1010.9 |
| 20260502213830 | 16 | 341 | 0.0 | 3.2 | 0.00 | 0.00 | 0.00 | 52 | 1011.1 |
| 20260502213329 | 16 | 341 | 0.0 | 1.6 | 0.00 | 0.00 | 0.00 | 51 | 1011.0 |
| 20260502212839 | 17 | 341 | 0.0 | 1.6 | 0.00 | 0.00 | 0.00 | 49 | 1011.1 |
| 20260502212317 | 17 | 341 | 0.0 | 3.2 | 0.00 | 0.00 | 0.00 | 48 | 1011.0 |
| 20260502211816 | 17 | 341 | 0.0 | 3.2 | 0.00 | 0.00 | 0.00 | 47 | 1011.1 |
| 20260502211316 | 17 | 341 | 0.0 | 1.6 | 0.00 | 0.00 | 0.00 | 52 | 1011.2 |
| 20260502210901 | 16 | 341 | 0.0 | 1.6 | 0.00 | 0.00 | 0.00 | 49 | 1011.0 |
| 20260502210329 | 16 | 341 | 0.0 | 4.8 | 0.00 | 0.00 | 0.00 | 51 | 1011.2 |
| 20260502205827 | 16 | 341 | 0.0 | 4.8 | 0.00 | 0.00 | 0.00 | 49 | 1011.2 |
| 20260502205326 | 16 | 341 | 1.6 | 1.6 | 0.00 | 0.00 | 0.00 | 51 | 1011.0 |
| 20260502204822 | 16 | 341 | 0.0 | 1.6 | 0.00 | 0.00 | 0.00 | 54 | 1011.0 |
| 20260502204319 | 16 | 341 | 0.0 | 1.6 | 0.00 | 0.00 | 0.00 | 55 | 1011.1 |
| 20260502203814 | 15 | 341 | 0.0 | 1.6 | 0.00 | 0.00 | 0.00 | 53 | 1011.2 |
| 20260502203314 | 15 | 341 | 0.0 | 1.6 | 0.00 | 0.00 | 0.00 | 53 | 1011.2 |
| 20260502202813 | 15 | 341 | 0.0 | 1.6 | 0.00 | 0.00 | 0.00 | 54 | 1011.2 |
| 20260502202312 | 15 | 341 | 0.0 | 1.6 | 0.00 | 0.00 | 0.00 | 53 | 1011.2 |
| 20260502201837 | 15 | 341 | 0.0 | 3.2 | 0.00 | 0.00 | 0.00 | 53 | 1011.3 |
| 20260502201335 | 15 | 341 | 0.0 | 3.2 | 0.00 | 0.00 | 0.00 | 52 | 1011.1 |
| 20260502200833 | 15 | 341 | 0.0 | 1.6 | 0.00 | 0.00 | 0.00 | 50 | 1011.3 |
| 20260502200333 | 16 | 341 | 0.0 | 4.8 | 0.00 | 0.00 | 0.00 | 52 | 1011.3 |
| 20260502195832 | 16 | 341 | 1.6 | 4.8 | 0.00 | 0.00 | 0.00 | 52 | 1011.2 |
| 20260502195330 | 16 | 341 | 0.0 | 3.2 | 0.00 | 0.00 | 0.00 | 54 | 1011.3 |
| 20260502194828 | 16 | 341 | 0.0 | 3.2 | 0.00 | 0.00 | 0.00 | 53 | 1011.4 |
| 20260502194350 | 15 | 341 | 0.0 | 9.7 | 0.00 | 0.00 | 0.00 | 53 | 1011.4 |
| 20260502193828 | 15 | 341 | 0.0 | 9.7 | 0.00 | 0.00 | 0.00 | 51 | 1011.4 |
| 20260502193351 | 16 | 341 | 1.6 | 4.8 | 0.00 | 0.00 | 0.00 | 51 | 1011.4 |
| 20260502192845 | 16 | 341 | 1.6 | 4.8 | 0.00 | 0.00 | 0.00 | 52 | 1011.7 |
| 20260502192324 | 15 | 341 | 0.0 | 3.2 | 0.00 | 0.00 | 0.00 | 58 | 1011.7 |
| 20260502191821 | 15 | 341 | 1.6 | 6.4 | 0.00 | 0.00 | 0.00 | 55 | 1011.7 |
| 20260502191320 | 15 | 341 | 1.6 | 6.4 | 0.00 | 0.00 | 0.00 | 52 | 1011.8 |
| 20260502190819 | 15 | 341 | 1.6 | 3.2 | 0.00 | 0.00 | 0.00 | 54 | 1011.9 |
| 20260502190317 | 15 | 341 | 0.0 | 4.8 | 0.00 | 0.00 | 0.00 | 56 | 1011.8 |
| 20260502185816 | 15 | 341 | 1.6 | 6.4 | 0.00 | 0.00 | 0.00 | 56 | 1012.0 |
| 20260502185356 | 15 | 341 | 1.6 | 6.4 | 0.00 | 0.00 | 0.00 | 54 | 1011.9 |
| 20260502184835 | 15 | 341 | 1.6 | 4.8 | 0.00 | 0.00 | 0.00 | 56 | 1012.0 |
| 20260502184337 | 15 | 341 | 0.0 | 8.0 | 0.00 | 0.00 | 0.00 | 56 | 1012.1 |
| 20260502183835 | 15 | 341 | 1.6 | 6.4 | 0.00 | 0.00 | 0.00 | 56 | 1012.1 |
| 20260502183333 | 15 | 341 | 0.0 | 6.4 | 0.00 | 0.00 | 0.00 | 57 | 1012.0 |
| 20260502182830 | 15 | 341 | 1.6 | 6.4 | 0.00 | 0.00 | 0.00 | 56 | 1012.2 |
| 20260502182325 | 16 | 341 | 1.6 | 6.4 | 0.00 | 0.00 | 0.00 | 54 | 1012.2 |
| 20260502181824 | 15 | 341 | 0.0 | 4.8 | 0.00 | 0.00 | 0.00 | 55 | 1012.2 |
| 20260502181349 | 16 | 341 | 0.0 | 9.7 | 0.00 | 0.00 | 0.00 | 54 | 1012.2 |
| 20260502180827 | 16 | 341 | 1.6 | 9.7 | 0.00 | 0.00 | 0.00 | 54 | 1012.1 |
| 20260502180321 | 15 | 341 | 0.0 | 6.4 | 0.00 | 0.00 | 0.00 | 55 | 1012.2 |
| 20260502170314 | 13 | 341 | 1.6 | 4.8 | 0.00 | 0.00 | 0.00 | 61 | 1013.3 |
| 20260502164312 | 13 | 341 | 0.0 | 8.0 | 0.00 | 0.00 | 0.00 | 62 | 1013.8 |
| 20260502163837 | 13 | 341 | 1.6 | 8.0 | 0.00 | 0.00 | 0.00 | 64 | 1014.0 |
| 20260502163336 | 13 | 341 | 0.0 | 8.0 | 0.00 | 0.00 | 0.00 | 64 | 1013.9 |
| 20260502162833 | 13 | 341 | 1.6 | 4.8 | 0.00 | 0.00 | 0.00 | 64 | 1013.8 |
| 20260502162331 | 13 | 341 | 1.6 | 6.4 | 0.00 | 0.00 | 0.00 | 64 | 1013.8 |
| 20260502161829 | 13 | 341 | 1.6 | 9.7 | 0.00 | 0.00 | 0.00 | 63 | 1013.8 |
| 20260502161321 | 13 | 341 | 3.2 | 9.7 | 0.00 | 0.00 | 0.00 | 64 | 1013.8 |
| 20260502160821 | 13 | 341 | 0.0 | 8.0 | 0.00 | 0.00 | 0.00 | 66 | 1013.8 |
| 20260502160318 | 13 | 341 | 0.0 | 8.0 | 0.00 | 0.00 | 0.00 | 66 | 1013.8 |
| 20260502152331 | 13 | 341 | 1.6 | 9.7 | 0.00 | 0.00 | 0.00 | 69 | 1013.7 |
| 20260502151827 | 13 | 341 | 1.6 | 12.9 | 0.00 | 0.00 | 0.00 | 68 | 1013.7 |
| 20260502151323 | 13 | 341 | 3.2 | 12.9 | 0.00 | 0.00 | 0.00 | 68 | 1013.8 |
| 20260502150821 | 13 | 341 | 1.6 | 6.4 | 0.00 | 0.00 | 0.00 | 70 | 1013.8 |
| 20260502150320 | 13 | 341 | 1.6 | 8.0 | 0.00 | 0.00 | 0.00 | 71 | 1014.0 |
| 20260502130333 | 12 | 341 | 0.0 | 3.2 | 0.00 | 0.00 | 0.00 | 77 | 1013.1 |
| 20260502052848 | 10 | 341 | 1.6 | 8.0 | 0.00 | 0.00 | 0.00 | 86 | 1011.9 |
| 20260502052325 | 10 | 341 | 1.6 | 4.8 | 0.00 | 0.00 | 0.00 | 86 | 1011.9 |
| 20260502051333 | 10 | 341 | 0.0 | 3.2 | 0.00 | 0.00 | 0.00 | 86 | 1012.0 |
| 20260502050833 | 10 | 341 | 1.6 | 4.8 | 0.00 | 0.00 | 0.00 | 85 | 1012.0 |